Location: Hylvaty SDH
(49.9612°N, 16.4057°E)
Time: 07:55:08
(UTC+02:00)

Transit 2A Rocket - Pass Details

Date: 17 July 2020
Orbit: 584 x 919 km, 66.7° (Epoch: 13 August)

Event Time Altitude Azimuth Distance (km) Brightness Sun altitude
Rises 21:41:43 0° 314° (NW) 3,567 11.3 -6.5°
Reaches altitude 10° 21:45:00 10° 297° (WNW) 2,608 9.2 -6.9°
Maximum altitude 21:49:03 19° 256° (WSW) 2,012 7.6 -7.4°
Drops below altitude 10° 21:52:59 10° 213° (SSW) 2,515 7.5 -7.8°
Sets 21:56:06 0° 196° (SSW) 3,396 8.0 -8.1°
